Location: Middelsbur
(53.6609°N, 7.5020°E)
Time: 13:17:53
(UTC+00:00)

Cosmos 1328 Rocket - Pass Details

Date: 06 July 2020
Orbit: 601 x 627 km, 82.5° (Epoch: 06 August)

Event Time Altitude Azimuth Distance (km) Brightness Sun altitude
Rises 22:56:49 0° 347° (NNW) 2,870 9.0 -13.3°
Reaches altitude 10° 22:59:02 10° 346° (NNW) 1,960 7.6 -13.4°
Maximum altitude 23:03:21 75° 262° (W) 629 3.5 -13.5°
Enters shadow 23:06:07 22° 179° (S) 1,338 4.6 -13.5°
